Weather History for Cushing, OK

Change the Weather History Date:

Saturday, October 6, 2012

  Actual Average Record
Temperature  
Mean Temperature 42 °F -  
Max Temperature 48 °F 76 °F 96 °F (1963)
Min Temperature 37 °F 51 °F 37 °F (2012)
Degree Days  
Heating Degree Days 22    
Moisture  
Dew Point 36 °F    
Average Humidity 76    
Maximum Humidity 87    
Minimum Humidity 58    
Precipitation  
Precipitation 0.00 in - - ()
Sea Level Pressure  
Sea Level Pressure 30.29 in    
Wind  
Wind Speed 6 mph (NE)    
Max Wind Speed 13 mph    
Max Gust Speed 18 mph    
Visibility 10 miles    
Events      
Averages and records for this station are not official NWS values.
T = Trace of Precipitation, MM = Missing Value Source: NWS Daily Summary

Daily Weather History Graph

Daily Weather History Graph

Search for Another Location

Airport:

Trip Planner

Search our weather history database for the weather conditions in past years. The results will help you decide how hot, cold, wet, or windy it might be!

Date:

Astronomy

Oct. 06, 2012 Rise Set
Actual Time 7:26 AM CDT 7:02 PM CDT
Civil Twilight 7:01 AM CDT 7:28 PM CDT
Nautical Twilight 6:31 AM CDT 7:58 PM CDT
Astronomical Twilight 6:01 AM CDT 8:27 PM CDT
Moon 11:27 PM CDT (10/6) 1:13 PM CDT (10/6)
Length of Visible Light 12h 27m
Length of Day
11h 36m
Waning Gibbous, 65% of the Moon is Illuminated
Oct 6
Waning Gibbous
Oct 8
Last Quarter
Oct 15
New
Oct 21
First Quarter
Oct 29
Full

Hourly Weather History & Observations

Time (CDT) Temp. Windchill Dew Point Humidity Pressure Visibility Wind Dir Wind Speed Gust Speed Precip Events Conditions
12:15 AM 42.8 °F 41.1 °F 37.4 °F 81% 30.27 in 10.0 mi NNE 3.5 mph - N/A   Clear
12:35 AM 42.8 °F 40.1 °F 37.4 °F 81% 30.27 in 10.0 mi NNE 4.6 mph - N/A   Clear
12:55 AM 42.8 °F 40.1 °F 37.4 °F 81% 30.27 in 10.0 mi NNE 4.6 mph - N/A   Clear
1:15 AM 42.8 °F 39.3 °F 37.4 °F 81% 30.27 in 10.0 mi NNE 5.8 mph - N/A   Clear
1:35 AM 41.0 °F 36.4 °F 37.4 °F 87% 30.27 in 10.0 mi NNE 6.9 mph - N/A   Clear
1:55 AM 41.0 °F 37.1 °F 37.4 °F 87% 30.27 in 10.0 mi NNE 5.8 mph - N/A   Clear
2:15 AM 41.0 °F 36.4 °F 37.4 °F 87% 30.28 in 10.0 mi North 6.9 mph - N/A   Clear
2:35 AM 41.0 °F 36.4 °F 37.4 °F 87% 30.28 in 10.0 mi NNE 6.9 mph - N/A   Clear
2:55 AM 41.0 °F 35.8 °F 35.6 °F 81% 30.28 in 10.0 mi NNE 8.1 mph - N/A   Clear
3:15 AM 41.0 °F 37.1 °F 35.6 °F 81% 30.28 in 10.0 mi NNE 5.8 mph - N/A   Clear
3:35 AM 41.0 °F 38.0 °F 35.6 °F 81% 30.27 in 10.0 mi NNE 4.6 mph - N/A   Scattered Clouds
3:55 AM 41.0 °F 37.1 °F 35.6 °F 81% 30.28 in 10.0 mi NNE 5.8 mph - N/A   Scattered Clouds
4:15 AM 41.0 °F 37.1 °F 37.4 °F 87% 30.27 in 10.0 mi NNE 5.8 mph - N/A   Scattered Clouds
4:35 AM 41.0 °F 38.0 °F 35.6 °F 81% 30.27 in 10.0 mi NNE 4.6 mph - N/A   Clear
4:55 AM 41.0 °F 38.0 °F 37.4 °F 87% 30.27 in 10.0 mi NNE 4.6 mph - N/A   Clear
5:15 AM 41.0 °F 38.0 °F 37.4 °F 87% 30.26 in 10.0 mi ENE 4.6 mph - N/A   Clear
5:35 AM 41.0 °F 37.1 °F 37.4 °F 87% 30.26 in 10.0 mi NE 5.8 mph - N/A   Clear
5:55 AM 41.0 °F 37.1 °F 37.4 °F 87% 30.27 in 10.0 mi NE 5.8 mph - N/A   Clear
6:15 AM 41.0 °F 37.1 °F 37.4 °F 87% 30.26 in 10.0 mi NE 5.8 mph - N/A   Scattered Clouds
6:35 AM 42.8 °F 40.1 °F 37.4 °F 81% 30.26 in 10.0 mi NE 4.6 mph - N/A   Scattered Clouds
6:55 AM 42.8 °F 39.3 °F 37.4 °F 81% 30.28 in 10.0 mi NE 5.8 mph - N/A   Scattered Clouds
7:15 AM 42.8 °F 40.1 °F 37.4 °F 81% 30.28 in 10.0 mi NE 4.6 mph - N/A   Scattered Clouds
7:35 AM 42.8 °F 40.1 °F 37.4 °F 81% 30.27 in 10.0 mi NE 4.6 mph - N/A   Scattered Clouds
7:55 AM 42.8 °F 39.3 °F 37.4 °F 81% 30.27 in 10.0 mi NE 5.8 mph - N/A   Scattered Clouds
8:35 AM 42.8 °F 40.1 °F 37.4 °F 81% 30.30 in 10.0 mi NNE 4.6 mph - N/A   Scattered Clouds
9:15 AM 42.8 °F 38.6 °F 37.4 °F 81% 30.30 in 10.0 mi NNE 6.9 mph - N/A   Scattered Clouds
9:35 AM 44.6 °F 43.1 °F 37.4 °F 76% 30.31 in 10.0 mi NE 3.5 mph - N/A   Scattered Clouds
9:55 AM 44.6 °F 40.7 °F 37.4 °F 76% 30.32 in 10.0 mi NE 6.9 mph - N/A   Light Drizzle
10:15 AM 44.6 °F 40.2 °F 37.4 °F 76% 30.32 in 10.0 mi NNE 8.1 mph - N/A   Scattered Clouds
10:35 AM 46.4 °F 42.9 °F 37.4 °F 71% 30.32 in 10.0 mi NE 6.9 mph - N/A   Clear
10:55 AM 46.4 °F 41.9 °F 37.4 °F 71% 30.33 in 10.0 mi NNE 9.2 mph - N/A   Scattered Clouds
11:15 AM 46.4 °F 41.9 °F 37.4 °F 71% 30.33 in 10.0 mi NE 9.2 mph - N/A   Scattered Clouds
11:35 AM 46.4 °F 41.5 °F 37.4 °F 71% 30.32 in 10.0 mi NE 10.4 mph - N/A   Scattered Clouds
11:55 AM 46.4 °F 41.9 °F 37.4 °F 71% 30.32 in 10.0 mi ENE 9.2 mph 16.1 mph N/A   Scattered Clouds
12:15 PM 46.4 °F 41.9 °F 35.6 °F 66% 30.33 in 10.0 mi NE 9.2 mph - N/A   Scattered Clouds
12:35 PM 46.4 °F 41.9 °F 37.4 °F 71% 30.32 in 10.0 mi NE 9.2 mph - N/A   Scattered Clouds
12:55 PM 46.4 °F 41.9 °F 35.6 °F 66% 30.32 in 10.0 mi NE 9.2 mph - N/A   Scattered Clouds
1:15 PM 46.4 °F 41.9 °F 35.6 °F 66% 30.30 in 10.0 mi NE 9.2 mph - N/A   Scattered Clouds
1:35 PM 46.4 °F 42.4 °F 37.4 °F 71% 30.31 in 10.0 mi NNE 8.1 mph - N/A   Scattered Clouds
1:55 PM 46.4 °F 41.5 °F 37.4 °F 71% 30.29 in 10.0 mi ENE 10.4 mph - N/A   Mostly Cloudy
2:15 PM 46.4 °F 41.9 °F 37.4 °F 71% 30.30 in 10.0 mi NE 9.2 mph - N/A   Mostly Cloudy
2:35 PM 46.4 °F 42.4 °F 35.6 °F 66% 30.29 in 10.0 mi NE 8.1 mph - N/A   Scattered Clouds
2:55 PM 46.4 °F 43.5 °F 35.6 °F 66% 30.28 in 10.0 mi NE 5.8 mph - N/A   Mostly Cloudy
3:15 PM 46.4 °F 41.9 °F 37.4 °F 71% 30.27 in 10.0 mi NE 9.2 mph - N/A   Mostly Cloudy
3:35 PM 46.4 °F 42.9 °F 37.4 °F 71% 30.27 in 10.0 mi NE 6.9 mph - N/A   Mostly Cloudy
3:55 PM 46.4 °F 42.4 °F 37.4 °F 71% 30.26 in 10.0 mi ENE 8.1 mph - N/A   Scattered Clouds
4:15 PM 48.2 °F - 37.4 °F 66% 30.26 in 10.0 mi ENE 6.9 mph - N/A   Scattered Clouds
4:35 PM 48.2 °F - 33.8 °F 58% 30.27 in 10.0 mi NNE 12.7 mph - N/A   Scattered Clouds
4:55 PM 48.2 °F - 35.6 °F 62% 30.27 in 10.0 mi NE 12.7 mph 18.4 mph N/A   Scattered Clouds
5:15 PM 46.4 °F 41.5 °F 35.6 °F 66% 30.27 in 10.0 mi NE 10.4 mph 17.3 mph N/A   Mostly Cloudy
5:35 PM 44.6 °F 38.4 °F 35.6 °F 71% 30.28 in 10.0 mi NNE 12.7 mph 18.4 mph N/A   Overcast
5:55 PM 44.6 °F 40.2 °F 35.6 °F 71% 30.28 in 10.0 mi NE 8.1 mph - N/A   Mostly Cloudy
6:15 PM 44.6 °F 40.2 °F 33.8 °F 66% 30.29 in 10.0 mi NE 8.1 mph - N/A   Scattered Clouds
6:35 PM 44.6 °F 43.1 °F 35.6 °F 71% 30.30 in 10.0 mi NNE 3.5 mph - N/A   Scattered Clouds
6:55 PM 44.6 °F 42.2 °F 35.6 °F 71% 30.30 in 10.0 mi NE 4.6 mph - N/A   Mostly Cloudy
7:15 PM 44.6 °F 43.1 °F 35.6 °F 71% 30.30 in 10.0 mi NE 3.5 mph - N/A   Scattered Clouds
7:35 PM 44.6 °F - 35.6 °F 71% 30.30 in 10.0 mi Calm Calm - N/A   Scattered Clouds
7:55 PM 44.6 °F - 35.6 °F 71% 30.30 in 10.0 mi Calm Calm - N/A   Scattered Clouds
8:15 PM 44.6 °F 43.1 °F 35.6 °F 71% 30.31 in 10.0 mi NNE 3.5 mph - N/A   Scattered Clouds
8:35 PM 42.8 °F 38.6 °F 35.6 °F 76% 30.31 in 10.0 mi North 6.9 mph - N/A   Scattered Clouds
8:55 PM 42.8 °F 40.1 °F 33.8 °F 70% 30.32 in 10.0 mi North 4.6 mph - N/A   Scattered Clouds
9:15 PM 42.8 °F 41.1 °F 33.8 °F 70% 30.32 in 10.0 mi North 3.5 mph - N/A   Scattered Clouds
9:35 PM 42.8 °F 41.1 °F 33.8 °F 70% 30.32 in 10.0 mi North 3.5 mph - N/A   Clear
9:55 PM 41.0 °F 38.0 °F 33.8 °F 76% 30.32 in 10.0 mi North 4.6 mph - N/A   Clear
10:15 PM 39.2 °F - 33.8 °F 81% 30.32 in 10.0 mi Calm Calm - N/A   Clear
10:35 PM 37.4 °F - 33.8 °F 87% 30.33 in 10.0 mi Calm Calm - N/A   Clear
10:55 PM 37.4 °F - 33.8 °F 87% 30.33 in 10.0 mi Calm Calm - N/A   Clear
11:15 PM 37.4 °F - 33.8 °F 87% 30.33 in 10.0 mi Calm Calm - N/A   Mostly Cloudy
11:35 PM 37.4 °F 34.9 °F 33.8 °F 87% 30.33 in 10.0 mi NNW 3.5 mph - N/A   Mostly Cloudy